Weather History for Seattle Boeing, WA

Change the Weather History Date:

Sunday, February 2, 2014

  Actual Average Record
Temperature  
Mean Temperature 40 °F -  
Max Temperature 46 °F 46 °F 64 °F (1962)
Min Temperature 34 °F 35 °F 8 °F (1950)
Degree Days  
Heating Degree Days 25    
Moisture  
Dew Point 31 °F    
Average Humidity 73    
Maximum Humidity 93    
Minimum Humidity 43    
Precipitation  
Precipitation 0.00 in - - ()
Sea Level Pressure  
Sea Level Pressure 30.02 in    
Wind  
Wind Speed 2 mph (NNW)    
Max Wind Speed 9 mph    
Max Gust Speed -    
Visibility 6 miles    
Events Fog    
Averages and records for this station are not official NWS values.
T = Trace of Precipitation, MM = Missing Value Source: NWS Daily Summary

Daily Weather History Graph

Daily Weather History Graph

Search for Another Location

Airport:

Trip Planner

Search our weather history database for the weather conditions in past years. The results will help you decide how hot, cold, wet, or windy it might be!

Date:

Astronomy

Feb. 02, 2014 Rise Set
Actual Time 7:34 AM PST 5:12 PM PST
Civil Twilight 7:01 AM PST 5:45 PM PST
Nautical Twilight 6:24 AM PST 6:22 PM PST
Astronomical Twilight 5:48 AM PST 6:58 PM PST
Moon 8:46 AM PST (2/2) 9:22 PM PST (2/2)
Length of Visible Light 10h 44m
Length of Day
9h 38m
Waxing Crescent, 12% of the Moon is Illuminated
Feb 2
Waxing Crescent
Feb 6
First Quarter
Feb 14
Full
Feb 22
Last Quarter
Mar 1
New

Hourly Weather History & Observations

Time (PST) Temp. Windchill Dew Point Humidity Pressure Visibility Wind Dir Wind Speed Gust Speed Precip Events Conditions
12:53 AM 37.9 °F - 35.1 °F 89% 30.09 in 0.2 mi Calm Calm - N/A Fog Fog
1:53 AM 37.0 °F - 35.1 °F 93% 30.08 in 0.2 mi Calm Calm - N/A Fog Fog
2:53 AM 37.0 °F - 35.1 °F 93% 30.08 in 0.5 mi Calm Calm - N/A Fog Fog
3:00 AM 37.4 °F - 35.6 °F 93% 30.07 in 1.2 mi Calm Calm - N/A Fog Fog
3:19 AM 37.4 °F - 35.6 °F 93% 30.07 in 1.0 mi Calm Calm - N/A Fog Fog
3:53 AM 37.0 °F - 34.0 °F 89% 30.06 in 1.0 mi Calm Calm - N/A   Mist
4:53 AM 36.0 °F - 33.1 °F 89% 30.05 in 1.0 mi Calm Calm - N/A   Overcast
5:53 AM 36.0 °F - 33.1 °F 89% 30.04 in 1.0 mi Calm Calm - N/A   Mist
6:20 AM 35.6 °F - 33.8 °F 93% 30.04 in 0.8 mi Calm Calm - N/A   Mist
6:53 AM 35.1 °F - 33.1 °F 92% 30.05 in 0.8 mi Calm Calm - N/A   Mist
7:53 AM 35.1 °F - 32.0 °F 89% 30.05 in 0.8 mi Calm Calm - N/A   Overcast
8:53 AM 34.0 °F 31.0 °F 32.0 °F 92% 30.05 in 1.2 mi NNE 3.5 mph - N/A   Overcast
9:53 AM 35.1 °F - 32.0 °F 89% 30.04 in 2.0 mi Calm Calm - N/A   Overcast
10:53 AM 37.9 °F 35.5 °F 34.0 °F 86% 30.03 in 10.0 mi South 3.5 mph - N/A   Scattered Clouds
11:53 AM 42.1 °F - 34.0 °F 73% 30.01 in 10.0 mi Calm Calm - N/A   Scattered Clouds
12:53 PM 46.0 °F - 32.0 °F 58% 29.99 in 10.0 mi Calm Calm - N/A   Mostly Cloudy
1:53 PM 46.0 °F 42.5 °F 32.0 °F 58% 29.97 in 10.0 mi NNW 6.9 mph - N/A   Scattered Clouds
2:53 PM 46.9 °F - 32.0 °F 56% 29.97 in 10.0 mi Variable 5.8 mph - N/A   Scattered Clouds
3:53 PM 45.0 °F 41.2 °F 30.9 °F 58% 29.97 in 10.0 mi NW 6.9 mph - N/A   Mostly Cloudy
4:53 PM 44.1 °F 40.1 °F 28.9 °F 55% 29.97 in 10.0 mi NNW 6.9 mph - N/A   Mostly Cloudy
5:53 PM 44.1 °F 39.0 °F 32.0 °F 63% 29.98 in 10.0 mi NNW 9.2 mph - N/A   Overcast
6:53 PM 43.0 °F - 28.0 °F 56% 29.98 in 10.0 mi Calm Calm - N/A   Overcast
7:53 PM 43.0 °F 38.2 °F 25.0 °F 49% 29.99 in 10.0 mi NNW 8.1 mph - N/A   Overcast
8:53 PM 42.1 °F 36.6 °F 25.0 °F 51% 29.99 in 10.0 mi WNW 9.2 mph - N/A   Overcast
9:53 PM 42.1 °F 37.7 °F 21.0 °F 43% 30.00 in 10.0 mi NW 6.9 mph - N/A   Overcast
10:53 PM 41.0 °F 35.8 °F 21.0 °F 45% 30.01 in 10.0 mi NW 8.1 mph - N/A   Overcast
11:53 PM 41.0 °F 37.1 °F 19.9 °F 43% 30.02 in 10.0 mi NNW 5.8 mph - N/A   Overcast